Location: Ostrava
(49.8330°N, 18.2830°E)
Time: 02:00:42
(UTC+01:00)

Lacrosse 5 - Visible Passes

Search period start: 26 February 2017 00:00
Search period end: 08 March 2017 00:00
Orbit: 718 x 722 km, 57.0° (Epoch: 29 January)

Date Brightness Start Highest point End Pass type
(mag) Time Alt. Az. Time Alt. Az. Time Alt. Az.
26 Feb 4.2 02:51:26 17° ESE 02:51:26 17° ESE 02:53:36 10° E visible
26 Feb 1.9 04:30:39 42° SW 04:32:22 80° SE 04:37:28 10° ENE visible
27 Feb 2.4 03:39:42 51° SE 03:39:42 51° SE 03:44:20 10° ENE visible
27 Feb 2.2 05:18:55 19° W 05:22:27 53° NNW 05:27:26 10° NE visible
28 Feb 3.9 02:48:41 23° E 02:48:41 23° E 02:51:03 10° ENE visible
28 Feb 1.8 04:27:53 47° W 04:29:16 72° NNW 04:34:22 10° NE visible
01 Mar 2.1 03:36:49 67° E 03:36:49 67° E 03:41:17 10° ENE visible
01 Mar 2.5 05:16:01 18° W 05:19:32 43° NNW 05:24:24 10° ENE visible
02 Mar 3.7 02:45:42 27° ENE 02:45:42 27° ENE 02:48:09 10° ENE visible
02 Mar 2.2 04:24:54 41° WNW 04:26:17 53° NNW 04:31:16 10° NE visible
03 Mar 4.8 01:54:33 11° ENE 01:54:33 11° ENE 01:54:52 10° ENE visible
03 Mar 2.1 03:33:45 63° NNE 03:33:45 63° NNE 03:38:11 10° NE visible
03 Mar 2.8 05:12:57 15° WNW 05:16:41 38° N 05:21:26 10° ENE visible
04 Mar 3.6 02:42:34 30° ENE 02:42:34 30° ENE 02:45:06 10° ENE visible
04 Mar 2.6 04:21:46 33° WNW 04:23:22 43° NNW 04:28:13 10° ENE visible
05 Mar 4.6 01:51:21 13° ENE 01:51:21 13° ENE 01:51:58 10° ENE visible
05 Mar 2.4 03:30:33 52° N 03:30:33 52° N 03:35:05 10° NE visible
05 Mar 2.9 05:09:45 13° WNW 05:13:52 36° N 05:18:34 10° ENE visible
06 Mar 3.5 02:39:19 31° NE 02:39:19 31° NE 02:42:00 10° NE visible
06 Mar 2.8 04:18:31 27° NW 04:20:30 38° N 04:25:15 10° ENE visible
07 Mar 4.6 01:48:04 15° ENE 01:48:04 15° ENE 01:48:55 10° ENE visible
07 Mar 2.6 03:27:16 43° NNW 03:27:16 43° NNW 03:32:02 10° ENE visible
07 Mar 2.9 05:06:28 11° WNW 05:11:02 38° N 05:15:47 10° ENE visible
